Terminal Aerodrome Forecast
Issued by NWS Tulsa, OK

Home | Current Version | Previous Version | Text Only | Print | Product List | Glossary On
Versions: 1 2 3 4 5 6 7 8 9 10 11 12 13 14 15
000
FTUS44 KTSA 302300
TAFTUL
TAF
KTUL 302333Z 3100/3124 12011KT P6SM FEW070 FEW250
     FM310200 17006KT P6SM SKC
     FM311400 17009KT P6SM SCT250
     FM311700 18015G22KT P6SM FEW040 SCT250=

USA.gov is the U.S. government's official web portal to all federal, state and local government web resources and services.